TimeCST,TemperatureF,Dew PointF,Humidity,Sea Level PressureIn,VisibilityMPH,Wind Direction,Wind SpeedMPH,Gust SpeedMPH,PrecipitationIn,Events,Conditions,WindDirDegrees,DateUTC
12:15 AM,14.0,8.6,79,30.27,10.0,East,10.4,-,N/A,,Overcast,100,2013-02-21 06:15:00
12:35 AM,14.0,8.6,79,30.28,10.0,ESE,8.1,-,N/A,,Overcast,110,2013-02-21 06:35:00
12:55 AM,14.0,8.6,79,30.28,10.0,ESE,10.4,-,N/A,,Overcast,110,2013-02-21 06:55:00
1:15 AM,14.0,8.6,79,30.28,10.0,East,11.5,-,N/A,,Overcast,100,2013-02-21 07:15:00
1:35 AM,14.0,8.6,79,30.27,10.0,East,11.5,-,N/A,,Overcast,90,2013-02-21 07:35:00
1:55 AM,14.0,8.6,79,30.26,10.0,East,10.4,-,N/A,,Overcast,90,2013-02-21 07:55:00
2:15 AM,14.0,10.4,86,30.26,10.0,East,10.4,-,N/A,,Overcast,90,2013-02-21 08:15:00
2:35 AM,14.0,10.4,86,30.25,10.0,East,11.5,-,N/A,,Overcast,90,2013-02-21 08:35:00
2:55 AM,14.0,10.4,86,30.23,10.0,East,12.7,-,N/A,,Overcast,90,2013-02-21 08:55:00
3:15 AM,12.2,10.4,92,30.22,10.0,East,12.7,-,N/A,,Mostly Cloudy,90,2013-02-21 09:15:00
3:35 AM,12.2,8.6,85,30.20,10.0,East,11.5,-,N/A,,Scattered Clouds,80,2013-02-21 09:35:00
3:55 AM,12.2,8.6,85,30.18,10.0,ENE,11.5,-,N/A,,Clear,70,2013-02-21 09:55:00
4:15 AM,12.2,8.6,85,30.17,10.0,East,11.5,-,N/A,,Clear,80,2013-02-21 10:15:00
4:35 AM,12.2,8.6,85,30.19,10.0,ESE,10.4,-,N/A,,Clear,110,2013-02-21 10:35:00
4:55 AM,12.2,8.6,85,30.23,10.0,ESE,9.2,-,N/A,,Clear,110,2013-02-21 10:55:00
5:15 AM,12.2,8.6,85,30.24,10.0,East,11.5,-,N/A,,Mostly Cloudy,100,2013-02-21 11:15:00
5:55 AM,12.2,8.6,85,30.20,10.0,East,11.5,-,N/A,,Overcast,80,2013-02-21 11:55:00
6:15 AM,12.2,8.6,85,30.18,10.0,ENE,13.8,-,N/A,,Scattered Clouds,70,2013-02-21 12:15:00
6:35 AM,12.2,8.6,85,30.20,10.0,East,10.4,-,N/A,,Clear,80,2013-02-21 12:35:00
6:55 AM,12.2,8.6,85,30.20,10.0,ENE,10.4,18.4,N/A,,Partly Cloudy,70,2013-02-21 12:55:00
7:15 AM,12.2,8.6,85,30.20,10.0,East,11.5,18.4,N/A,,Clear,80,2013-02-21 13:15:00
7:35 AM,12.2,8.6,85,30.20,10.0,East,13.8,-,N/A,,Clear,100,2013-02-21 13:35:00
7:55 AM,14.0,8.6,79,30.20,10.0,East,12.7,-,N/A,,Clear,100,2013-02-21 13:55:00
8:15 AM,14.0,8.6,79,30.19,10.0,East,12.7,18.4,N/A,,Clear,80,2013-02-21 14:15:00
8:35 AM,14.0,8.6,79,30.20,10.0,East,15.0,-,N/A,,Partly Cloudy,90,2013-02-21 14:35:00
8:55 AM,15.8,8.6,73,30.19,10.0,East,13.8,-,N/A,,Clear,80,2013-02-21 14:55:00
9:15 AM,15.8,8.6,73,30.20,10.0,East,15.0,-,N/A,,Scattered Clouds,90,2013-02-21 15:15:00
9:35 AM,17.6,8.6,68,30.21,-9999.0,ESE,17.3,-,N/A,,Mostly Cloudy,110,2013-02-21 15:35:00
9:55 AM,17.6,8.6,68,30.19,10.0,ESE,18.4,-,N/A,,Mostly Cloudy,110,2013-02-21 15:55:00
10:15 AM,19.4,8.6,63,30.19,10.0,East,19.6,-,N/A,,Overcast,100,2013-02-21 16:15:00
10:35 AM,19.4,8.6,63,30.20,10.0,ESE,15.0,-,N/A,,Overcast,110,2013-02-21 16:35:00
10:55 AM,21.2,8.6,58,30.19,10.0,East,17.3,-,N/A,,Overcast,100,2013-02-21 16:55:00
11:15 AM,21.2,8.6,58,30.17,10.0,East,16.1,24.2,N/A,,Overcast,100,2013-02-21 17:15:00
11:35 AM,23.0,8.6,54,30.16,10.0,East,17.3,-,N/A,,Overcast,90,2013-02-21 17:35:00
11:55 AM,23.0,10.4,59,30.15,10.0,East,16.1,-,N/A,,Overcast,80,2013-02-21 17:55:00
12:15 PM,23.0,8.6,54,30.13,10.0,East,16.1,-,N/A,,Overcast,90,2013-02-21 18:15:00
12:35 PM,23.0,8.6,54,30.12,10.0,East,18.4,-,N/A,,Overcast,90,2013-02-21 18:35:00
12:55 PM,23.0,8.6,54,30.12,10.0,East,19.6,-,N/A,,Overcast,80,2013-02-21 18:55:00
1:15 PM,24.8,8.6,50,30.10,10.0,East,16.1,23.0,N/A,,Overcast,90,2013-02-21 19:15:00
1:35 PM,24.8,8.6,50,30.09,10.0,East,17.3,24.2,N/A,,Overcast,80,2013-02-21 19:35:00
1:55 PM,24.8,8.6,50,30.07,10.0,ENE,18.4,25.3,N/A,,Overcast,70,2013-02-21 19:55:00
2:15 PM,24.8,8.6,50,30.06,10.0,ENE,19.6,25.3,N/A,,Overcast,70,2013-02-21 20:15:00
2:35 PM,24.8,8.6,50,30.06,10.0,East,18.4,24.2,N/A,,Overcast,80,2013-02-21 20:35:00
2:55 PM,24.8,8.6,50,30.06,10.0,ENE,16.1,25.3,N/A,,Overcast,70,2013-02-21 20:55:00
3:15 PM,24.8,8.6,50,30.06,10.0,ENE,19.6,-,N/A,,Mostly Cloudy,70,2013-02-21 21:15:00
3:35 PM,24.8,10.4,54,30.07,10.0,ENE,16.1,21.9,N/A,,Overcast,70,2013-02-21 21:35:00
3:55 PM,24.8,8.6,50,30.06,10.0,ENE,18.4,25.3,N/A,,Overcast,70,2013-02-21 21:55:00
4:15 PM,24.8,10.4,54,30.04,10.0,ENE,17.3,25.3,N/A,,Overcast,70,2013-02-21 22:15:00
4:35 PM,24.8,10.4,54,30.03,10.0,ENE,20.7,26.5,N/A,,Mostly Cloudy,70,2013-02-21 22:35:00
4:55 PM,24.8,10.4,54,30.01,10.0,ENE,23.0,-,N/A,,Overcast,60,2013-02-21 22:55:00
5:15 PM,24.8,10.4,54,30.01,10.0,ENE,19.6,26.5,N/A,,Mostly Cloudy,60,2013-02-21 23:15:00
5:35 PM,23.0,12.2,63,30.01,10.0,ENE,18.4,25.3,N/A,,Overcast,60,2013-02-21 23:35:00
5:55 PM,23.0,12.2,63,30.01,10.0,ENE,21.9,-,N/A,,Mostly Cloudy,60,2013-02-21 23:55:00
6:15 PM,23.0,14.0,68,30.01,4.0,ENE,23.0,-,N/A,Rain,Freezing Rain,70,2013-02-22 00:15:00
6:35 PM,23.0,14.0,68,29.99,4.0,ENE,23.0,-,N/A,Rain,Freezing Rain,60,2013-02-22 00:35:00
6:55 PM,21.2,14.0,74,29.99,10.0,NE,19.6,26.5,N/A,,Overcast,50,2013-02-22 00:55:00
7:15 PM,21.2,14.0,74,29.98,5.0,ENE,23.0,31.1,N/A,Snow,Light Snow,60,2013-02-22 01:15:00
7:35 PM,19.4,15.8,86,29.98,2.0,NE,21.9,-,N/A,Snow,Light Snow,50,2013-02-22 01:35:00
7:55 PM,19.4,15.8,86,29.99,1.5,ENE,19.6,27.6,N/A,Snow,Light Snow,60,2013-02-22 01:55:00
8:15 PM,19.4,17.6,93,29.99,1.0,ENE,18.4,-,N/A,Snow,Light Snow,60,2013-02-22 02:15:00
8:35 PM,19.4,17.6,93,29.99,1.0,ENE,18.4,24.2,N/A,Snow,Light Snow,60,2013-02-22 02:35:00
8:55 PM,17.6,17.6,100,29.98,1.0,ENE,19.6,-,N/A,Snow,Light Snow,60,2013-02-22 02:55:00
9:15 PM,17.6,17.6,100,29.98,1.0,ENE,15.0,23.0,N/A,Snow,Light Snow,60,2013-02-22 03:15:00
9:35 PM,17.6,17.6,100,29.97,1.0,NE,18.4,25.3,N/A,Snow,Light Snow,50,2013-02-22 03:35:00
9:55 PM,17.6,15.8,93,29.96,1.0,NE,18.4,24.2,N/A,Snow,Light Snow,50,2013-02-22 03:55:00
10:15 PM,17.6,15.8,93,29.95,1.2,NE,18.4,-,N/A,Snow,Light Snow,50,2013-02-22 04:15:00
10:35 PM,17.6,15.8,93,29.94,1.2,ENE,21.9,-,N/A,Snow,Light Snow,60,2013-02-22 04:35:00
10:55 PM,17.6,15.8,93,29.94,1.2,NE,16.1,23.0,N/A,Snow,Light Snow,50,2013-02-22 04:55:00
11:15 PM,17.6,15.8,93,29.93,1.8,NE,17.3,-,N/A,Snow,Light Snow,50,2013-02-22 05:15:00
11:35 PM,17.6,15.8,93,29.93,2.5,NE,16.1,25.3,N/A,Snow,Light Snow,50,2013-02-22 05:35:00
11:55 PM,17.6,14.0,86,29.92,3.0,NE,17.3,-,N/A,Snow,Light Snow,50,2013-02-22 05:55:00